Wind_Speed
25 25 26 27 27 28 29 30 30 31 32 33 34 35 36 37 37 38 38 39 39 40 41 41 42 43 44 45 46 47 47 46 44 43 41 38 41 42 40 38 37 39 39 35 34 33 34 34 35 37 40 42 45 45 44 45 44 43 45 48 53 53 52 51 49 48 46 43 40 38 36 35 35 31 28 27 26 26 25 23 24 23 21 17 14 13 14 14
25 25 25 25 26 26 27 28 29 29 30 31 33 34 35 36 36 37 38 38 38 39 39 40 41 42 43 44 45 46 46 46 45 42 41 42 44 43 40 39 37 38 38 35 33 33 31 31 33 36 39 41 43 42 42 43 44 46 48 51 56 56 54 53 51 49 46 43 40 38 36 35 35 31 26 26 26 25 25 24 25 26 23 21 19 18 20 19
25 25 25 25 25 25 26 26 27 28 28 29 30 31 33 34 35 36 36 37 38 37 38 38 39 40 41 42 44 44 44 45 44 41 42 44 43 42 40 39 38 38 37 34 34 33 31 30 32 35 37 40 41 41 41 43 44 46 48 52 57 55 52 51 49 47 44 41 39 37 35 34 33 28 25 25 27 26 25 24 23 24 24 24 22 20 20 20
23 23 24 24 24 25 25 26 26 27 27 28 28 29 30 31 33 34 34 35 36 36 37 37 38 39 39 41 42 42 42 43 43 40 42 42 40 40 40 39 39 39 36 35 34 33 31 31 32 34 36 39 40 40 42 44 44 45 49 54 54 50 49 48 45 43 40 37 36 35 32 32 29 25 25 26 27 26 21 21 20 21 23 25 22 19 19 17
22 22 22 23 23 24 25 25 26 26 27 27 28 28 29 30 31 31 33 34 34 34 35 35 37 37 38 39 40 41 39 38 39 40 40 40 38 38 38 38 39 39 38 36 34 32 31 31 32 34 36 39 39 41 44 44 43 46 51 52 49 47 46 44 41 39 36 34 33 32 31 30 26 25 27 27 26 22 13 17 20 20 22 23 20 19 19 15
24 23 23 23 23 23 23 23 23 23 24 24 25 26 27 28 28 29 31 31 32 33 33 34 35 36 37 38 39 40 37 32 31 33 34 36 37 36 36 37 39 39 38 37 35 33 32 32 33 35 37 38 39 42 44 42 43 48 50 48 47 46 44 41 38 36 32 32 32 31 29 27 26 28 29 27 25 18 10 14 18 19 18 18 18 19 16 12
24 24 23 22 21 20 20 19 20 20 20 20 21 21 22 24 25 27 27 28 30 30 31 32 32 35 36 38 38 38 41 35 28 27 29 31 33 34 34 36 38 39 39 37 35 34 35 34 35 35 37 38 39 41 41 40 42 48 49 47 46 45 43 41 37 34 31 30 30 28 28 28 28 30 30 28 26 20 16 18 19 19 18 16 17 16 12 9
20 19 19 19 19 19 20 20 20 21 21 21 21 20 20 21 22 23 24 25 26 27 29 29 31 33 33 36 36 39 42 31 25 30 31 30 30 29 31 33 37 39 39 38 36 34 34 36 37 35 37 38 38 39 38 39 43 48 50 46 45 44 41 39 37 34 32 30 28 27 30 29 29 31 32 30 25 18 18 20 22 23 21 19 18 16 13 8
18 18 19 19 20 21 22 23 24 23 23 24 23 23 22 21 20 21 22 23 23 24 25 26 29 30 32 34 35 43 40 21 22 34 34 33 31 28 30 32 35 38 38 38 37 37 36 36 35 34 35 35 36 37 37 40 44 47 48 46 43 43 41 38 37 35 33 31 28 29 32 29 30 32 33 32 23 16 15 18 23 25 24 23 21 18 14 9
20 21 22 23 25 26 27 28 29 28 28 27 26 25 25 24 22 21 21 22 22 23 23 25 27 28 31 32 35 42 31 17 25 33 33 34 32 31 31 32 34 36 38 39 39 39 38 34 31 31 34 34 36 38 37 41 45 43 43 45 44 42 41 39 38 36 35 33 29 29 30 30 31 31 35 33 22 17 16 15 20 24 24 22 21 20 15 11
22 23 25 26 28 29 30 31 32 32 32 31 30 28 27 26 25 24 23 22 22 22 22 23 25 27 29 31 37 36 20 19 30 30 32 33 32 32 32 32 33 34 37 38 39 40 38 34 30 32 35 36 37 37 38 42 43 41 39 41 44 43 41 41 40 37 37 36 31 28 28 29 30 32 36 31 21 20 19 16 17 20 22 21 23 23 16 11
23 25 27 28 30 31 32 33 33 34 34 34 33 32 30 28 27 27 26 25 23 23 22 22 24 25 26 30 31 23 15 26 30 29 34 34 32 33 32 33 32 32 35 37 39 39 38 36 34 36 36 36 38 35 36 41 42 41 40 37 40 42 43 43 41 38 37 37 32 27 28 32 34 34 34 27 22 23 22 20 19 18 20 23 25 22 14 10
26 27 28 29 31 32 33 35 35 36 36 35 35 33 33 30 28 28 28 28 26 25 24 23 25 24 27 28 17 11 21 31 28 28 32 32 34 34 34 35 33 32 33 35 38 38 38 39 39 40 37 35 38 35 32 37 41 41 40 39 36 37 42 44 41 39 39 37 32 27 30 35 36 33 30 25 23 25 24 23 23 22 22 24 24 19 13 12
26 28 29 30 32 33 35 36 37 38 38 38 36 34 32 31 30 29 28 28 28 28 26 25 26 26 30 24 9 12 24 27 26 25 26 30 35 36 36 35 33 32 31 34 37 39 40 41 41 41 40 37 37 36 32 31 38 41 38 38 38 35 39 43 41 40 41 37 32 29 32 36 34 30 27 25 24 25 24 24 25 27 28 27 24 20 17 16
27 28 30 32 34 35 35 36 37 38 38 39 38 34 31 30 30 30 29 28 27 28 27 27 27 27 31 23 13 18 21 22 25 24 26 33 35 35 37 35 33 32 32 34 37 40 41 42 43 42 42 41 35 36 37 30 31 39 36 33 37 36 35 36 37 39 40 36 32 31 32 34 33 29 25 22 22 24 24 25 27 29 30 29 27 26 24 24
29 30 32 33 33 33 34 34 35 36 38 39 39 36 31 29 28 29 29 27 26 27 27 28 27 29 30 22 15 17 16 18 23 25 29 33 34 33 36 38 36 34 33 34 37 39 42 43 43 43 42 43 39 36 36 34 31 35 37 31 30 34 32 30 32 36 36 33 34 36 31 30 31 28 24 20 18 22 25 27 30 31 31 29 27 27 28 27
30 31 31 31 31 31 31 32 32 33 34 36 36 35 32 28 26 26 26 25 25 25 26 27 27 30 29 22 17 15 14 17 20 24 29 31 33 32 36 42 40 36 33 33 36 39 42 42 42 42 42 43 44 37 32 36 36 33 35 31 24 25 30 30 31 31 32 33 35 37 35 31 29 26 25 22 18 22 27 28 31 33 31 28 25 25 26 25
30 30 29 29 30 30 31 31 31 31 32 32 32 31 29 26 24 23 23 24 24 24 25 25 25 29 25 17 14 12 13 19 20 22 26 30 33 33 38 42 40 38 35 34 38 39 40 41 39 40 43 45 46 44 36 35 40 35 30 32 29 22 24 30 32 29 30 33 34 34 34 33 30 26 24 21 18 23 27 28 31 32 31 27 23 23 23 23
28 27 28 28 29 30 30 30 30 31 32 31 29 27 25 24 23 22 21 21 22 22 23 22 23 27 22 12 10 10 16 20 20 21 24 28 32 35 39 40 39 39 39 39 39 40 40 37 38 41 47 51 49 51 44 31 34 37 30 30 33 27 23 25 29 29 28 31 33 33 31 31 30 28 26 23 20 22 26 29 30 30 29 26 22 21 21 21
26 26 26 28 29 30 30 31 31 32 33 31 29 26 23 22 21 20 18 19 20 22 22 22 24 27 24 19 15 15 20 22 21 21 23 28 34 38 39 41 41 40 42 43 40 40 40 36 42 49 50 51 49 49 46 33 29 33 30 26 28 29 25 22 25 28 26 26 29 29 28 29 30 28 28 28 27 27 28 29 29 30 29 26 24 21 19 19
23 24 25 26 27 28 30 32 33 33 32 29 27 26 23 21 20 19 19 19 19 20 23 22 24 26 24 20 15 15 21 24 24 22 23 29 35 38 40 42 43 43 45 44 39 37 39 42 48 50 47 46 47 47 45 40 34 30 27 23 24 26 26 23 23 25 25 25 25 24 24 25 26 27 28 32 34 34 33 31 29 29 28 26 24 21 19 20
21 22 24 25 26 28 29 31 32 31 30 27 25 23 22 19 19 19 22 23 18 17 21 21 22 26 24 19 14 15 22 26 24 22 24 30 36 38 39 43 45 45 44 42 39 37 41 48 48 44 43 43 44 45 44 43 40 33 25 22 22 23 24 24 23 21 21 23 23 23 23 21 22 24 27 31 35 36 36 34 31 30 28 25 24 22 22 23
20 21 22 24 26 27 28 31 30 28 26 25 22 21 20 17 16 17 20 26 23 16 16 18 20 22 21 17 14 18 25 27 24 24 27 32 37 37 36 43 46 44 44 44 44 42 40 44 45 41 40 41 42 43 43 42 41 37 30 24 22 20 19 20 22 22 20 19 19 20 23 23 22 25 29 31 33 36 36 35 34 33 30 25 24 23 21 23
19 20 21 23 25 25 27 29 27 25 24 23 19 19 19 16 14 15 18 25 26 18 12 14 17 17 15 13 14 22 27 28 26 25 29 32 36 36 36 40 44 43 45 46 45 45 38 33 39 42 39 40 41 41 42 43 41 39 36 30 24 21 17 14 17 20 23 21 18 16 18 24 27 28 31 33 34 35 34 34 36 35 30 25 24 24 21 21
19 19 20 22 24 24 25 27 26 23 21 20 18 17 17 15 12 13 18 23 24 18 10 9 10 9 9 10 16 24 27 29 29 27 30 31 31 33 34 35 41 44 45 44 41 44 40 27 31 41 40 40 41 41 43 44 41 39 39 36 28 21 17 15 13 15 21 22 21 18 12 18 30 33 33 34 33 32 31 32 34 32 29 26 25 23 21 21
20 19 20 22 24 24 23 24 25 23 20 19 18 17 16 14 12 13 18 20 19 13 5 5 6 7 7 6 12 19 24 29 30 32 32 32 30 29 30 31 38 43 43 41 36 40 42 31 28 37 41 40 39 40 42 43 40 37 39 39 31 23 18 17 15 13 14 13 16 21 15 13 26 33 33 34 33 31 31 31 32 31 30 27 24 22 21 22
21 20 20 21 24 24 23 23 24 23 22 19 17 17 15 14 13 15 16 12 10 8 5 7 6 6 6 4 7 13 14 16 24 37 34 31 30 28 28 29 32 37 38 36 32 37 43 37 29 32 39 42 41 40 41 41 38 34 37 37 32 26 20 18 18 15 11 8 11 20 18 13 22 32 34 34 34 33 32 32 31 31 31 27 24 22 23 24
22 22 20 21 23 24 23 23 22 23 22 20 18 16 15 14 12 13 10 4 4 8 10 10 3 4 7 6 9 10 9 5 15 35 35 29 29 29 28 26 25 28 33 37 35 32 37 41 35 30 36 42 43 42 39 38 35 31 33 34 31 27 22 21 20 18 13 10 14 21 17 9 16 30 34 33 35 35 33 32 29 30 29 26 25 25 26 26
23 23 21 21 22 23 23 22 22 22 22 21 19 15 15 14 12 11 5 2 7 11 12 10 5 8 12 6 9 9 14 9 9 25 32 29 29 30 27 22 20 19 25 36 35 22 24 39 40 32 35 41 43 40 37 37 34 31 31 31 30 26 22 20 17 17 15 12 19 26 20 9 10 26 32 31 35 36 31 29 27 28 28 27 28 28 27 27
22 23 22 21 20 22 22 22 21 21 21 22 20 17 15 13 12 8 1 4 13 14 12 14 14 17 15 5 9 8 18 15 10 22 32 29 28 29 24 18 18 17 18 28 33 22 15 28 38 37 36 38 38 37 36 36 33 31 32 30 27 26 21 17 13 14 12 10 20 28 24 13 8 18 28 30 33 32 27 27 27 28 29 29 29 29 27 27
22 21 22 21 20 21 21 21 21 20 20 21 21 19 16 14 10 3 2 11 17 14 14 20 22 22 14 5 10 10 19 18 14 22 29 29 27 27 24 19 19 19 18 24 31 26 15 18 33 40 37 33 33 36 35 34 33 29 29 30 25 21 19 14 14 16 9 6 15 23 23 17 11 17 25 25 29 29 26 27 28 26 28 28 28 28 27 27
22 21 21 20 20 21 21 21 21 20 21 21 21 21 18 13 6 6 7 14 12 13 21 26 26 22 11 7 11 12 18 20 17 20 25 29 29 29 29 24 23 22 20 28 32 28 22 21 27 32 33 32 29 33 34 33 35 29 27 32 21 8 10 9 7 10 6 4 12 19 18 14 16 23 26 24 27 28 26 26 25 24 25 27 28 29 28 27
23 21 20 20 20 20 20 21 22 21 22 22 21 21 17 8 4 8 16 16 12 18 26 28 26 17 6 11 11 11 17 18 18 18 22 26 28 30 30 25 25 19 13 27 34 27 23 21 24 26 29 34 31 32 37 36 38 35 31 34 23 6 5 7 3 2 2 5 15 22 16 10 14 20 24 26 26 22 22 23 23 25 26 27 30 31 30 30
23 22 20 20 19 19 19 21 22 22 23 22 21 21 13 7 8 13 19 20 20 26 28 27 22 9 3 8 7 11 16 15 15 17 17 20 24 29 30 27 27 18 9 22 32 27 19 14 24 31 28 33 35 31 35 38 40 40 34 31 27 15 6 4 3 3 3 4 13 19 11 5 7 11 17 25 25 20 22 25 24 26 28 29 33 34 32 32
22 21 20 19 19 19 19 20 23 23 23 23 23 19 10 8 13 18 21 25 27 28 27 23 16 9 6 7 7 10 15 13 15 16 12 17 24 28 33 30 29 22 13 21 27 26 22 12 19 32 27 28 34 29 29 34 35 39 37 29 29 26 14 3 3 7 8 6 8 12 9 6 8 9 15 22 25 26 27 28 28 27 28 31 33 34 31 31
21 21 19 18 19 19 20 21 23 22 23 24 22 19 14 15 20 23 25 27 26 27 26 19 13 8 6 9 10 11 12 11 16 16 8 14 22 28 33 30 29 25 17 22 26 21 20 13 12 27 29 24 28 28 27 31 31 34 39 35 29 26 19 8 3 4 8 7 8 10 9 11 12 11 17 20 23 28 28 27 28 27 28 30 32 32 30 30
20 19 18 17 18 20 20 21 22 21 23 24 22 23 24 25 28 28 29 28 23 22 22 15 11 11 6 7 10 14 13 9 14 15 8 11 17 26 34 29 27 28 18 19 25 16 11 14 14 24 32 26 23 25 25 27 31 34 39 37 25 18 20 16 6 0 3 3 6 9 10 13 13 11 17 21 21 26 27 23 24 25 26 29 31 32 30 29
22 21 19 17 18 19 20 20 20 21 24 25 26 28 29 31 32 31 30 26 18 16 16 10 10 11 6 8 9 13 12 9 13 13 10 12 14 22 34 31 26 30 21 14 21 17 7 11 14 19 30 28 21 23 26 28 31 31 33 35 26 15 15 17 9 1 2 2 3 5 7 12 17 15 18 23 23 27 28 23 21 21 23 26 29 31 30 29
25 22 19 17 17 18 19 19 20 22 24 27 29 29 30 32 28 23 21 18 13 12 11 9 9 8 5 8 8 11 11 10 14 12 10 14 13 17 31 33 26 30 25 14 19 20 9 6 11 17 26 28 24 28 33 35 33 26 26 33 32 18 12 17 14 5 2 2 2 3 1 7 17 18 20 25 27 28 30 27 20 17 18 21 24 26 27 27
23 20 17 17 18 18 19 18 19 22 23 26 30 30 32 29 19 12 10 11 9 8 7 8 8 5 6 7 6 8 9 9 14 12 9 14 14 13 25 33 29 29 27 18 16 18 9 3 8 18 25 27 30 34 36 38 39 33 28 34 36 24 14 16 18 14 7 1 3 3 1 4 13 16 18 23 25 27 28 25 20 18 18 20 22 23 24 24
21 18 18 20 21 20 18 17 17 20 22 25 29 31 32 29 19 12 8 7 7 6 6 7 5 5 6 7 5 3 4 8 13 12 9 12 14 12 22 33 33 28 26 23 19 16 9 1 3 16 28 31 33 35 33 32 36 37 32 32 35 30 18 11 11 17 15 6 3 4 2 5 11 12 13 15 16 20 22 19 19 21 21 22 24 23 21 22
22 20 21 22 20 17 16 17 17 19 22 23 25 26 28 30 24 15 10 8 7 8 9 7 5 7 6 6 3 1 4 7 11 13 7 8 11 9 18 33 33 25 23 25 23 16 8 2 3 8 24 31 29 28 29 28 29 33 31 26 28 31 26 14 8 13 16 11 7 5 3 5 11 12 10 11 13 15 16 16 19 23 24 24 25 23 21 21
23 22 23 20 16 16 18 18 17 17 20 21 21 21 23 27 27 21 14 10 9 10 9 7 5 5 5 2 5 6 6 8 11 11 4 3 6 3 12 29 33 23 18 19 19 15 9 8 5 2 13 23 24 24 26 28 27 31 32 27 25 30 31 21 11 12 15 13 8 4 2 6 11 12 11 11 13 14 14 16 21 25 26 25 25 23 22 23
23 22 23 17 14 19 20 18 17 17 19 21 20 20 21 23 26 23 17 12 12 11 8 6 4 3 4 7 10 10 8 7 8 7 2 0 3 2 6 20 30 26 18 14 15 14 12 9 5 3 9 13 15 16 21 28 30 32 34 31 24 25 30 28 18 12 12 12 12 7 3 6 11 13 13 13 14 15 16 16 21 26 27 26 25 25 24 24
23 22 22 15 13 20 21 18 19 17 19 24 23 21 22 21 20 20 18 15 14 13 9 5 2 3 9 11 10 10 9 8 5 4 2 2 3 3 6 15 27 29 22 15 10 9 9 7 5 5 7 8 8 13 22 32 34 31 32 33 26 21 27 32 26 15 8 9 12 9 6 9 14 14 14 14 14 17 17 17 21 26 26 25 25 25 25 25
24 23 24 17 11 17 20 17 18 17 19 25 24 21 21 18 16 18 19 19 19 17 12 7 1 3 7 9 8 8 9 8 6 2 1 4 2 4 10 19 27 29 23 16 10 6 5 6 8 8 11 14 13 15 25 33 30 24 23 29 30 22 21 27 26 18 11 8 9 9 7 9 14 14 13 14 15 19 20 20 24 27 26 26 26 25 25 25
23 24 25 21 14 16 19 18 19 18 18 21 22 21 18 15 15 17 18 19 21 20 15 11 6 4 5 6 8 7 6 5 5 4 3 2 2 7 14 23 27 26 23 16 10 7 7 11 10 8 10 18 17 12 19 29 28 22 19 22 28 24 17 18 20 18 15 10 6 6 5 6 11 14 15 14 15 21 24 23 26 28 27 27 26 26 26 26
21 21 23 21 17 18 20 21 21 20 20 20 20 19 15 13 15 17 15 16 18 19 18 14 9 7 4 4 6 6 5 4 2 3 8 8 9 12 16 22 24 24 22 16 10 7 10 11 7 4 7 17 19 12 13 23 27 24 20 18 23 25 19 14 13 13 14 13 10 5 3 4 8 11 15 16 17 22 26 26 28 30 29 28 28 27 28 27
20 21 20 18 16 16 17 20 21 20 21 22 19 16 14 13 14 14 13 14 15 16 18 15 9 6 4 2 3 4 6 3 2 6 14 16 16 18 19 19 21 24 21 16 10 8 9 9 5 6 8 12 17 15 12 16 20 22 22 19 20 23 19 14 12 12 13 14 13 9 5 4 5 7 13 17 19 23 28 30 31 32 31 29 28 28 28 27
22 24 23 18 15 16 16 19 21 20 21 22 20 15 13 12 12 11 12 17 16 13 15 15 11 6 3 3 2 1 4 4 4 7 16 20 20 22 22 20 23 25 19 16 14 10 8 7 5 7 8 9 12 14 13 13 13 16 20 22 22 23 19 15 14 14 14 15 13 11 9 6 5 7 10 16 21 26 30 32 30 30 30 28 27 28 27 25
23 25 26 21 17 17 17 18 21 22 22 22 21 18 14 12 11 10 11 15 16 14 14 14 12 6 2 4 4 2 1 4 6 7 15 18 21 23 22 23 26 24 18 18 14 7 5 7 4 7 8 7 11 12 12 13 11 13 20 24 26 25 21 16 12 12 14 14 11 12 11 8 8 8 9 14 21 26 29 29 26 26 27 26 24 24 24 24
20 22 24 22 18 18 18 18 20 21 21 20 20 20 17 12 10 10 11 13 14 14 14 13 11 5 2 5 4 3 1 3 4 9 15 15 17 22 24 26 27 22 19 18 9 3 4 6 4 9 8 8 11 10 12 15 11 10 18 23 23 23 20 15 10 9 13 12 9 9 10 10 11 11 12 14 19 25 28 27 25 24 24 23 21 21 21 22
Wind_Direction
295 293 291 289 288 285 284 282 281 279 277 276 275 273 273 272 270 269 267 265 263 261 259 258 257 256 255 255 254 253 252 251 249 250 251 249 247 246 244 243 243 245 244 242 243 243 242 239 236 235 235 236 236 235 234 236 236 234 235 237 240 242 243 247 250 252 254 256 256 258 262 266 268 267 269 269 263 258 263 278 283 274 268 260 242 230 228 220
298 297 295 293 291 288 286 284 283 281 279 278 276 275 274 272 271 270 269 268 266 264 261 260 258 257 256 256 255 255 253 252 249 248 249 247 246 246 245 244 243 243 242 240 240 240 239 236 233 231 231 232 232 231 230 232 232 232 234 237 240 243 246 250 252 254 256 257 259 261 262 265 266 267 266 260 253 248 258 273 278 272 259 246 243 243 240 234
302 301 299 297 295 293 291 289 287 284 282 280 278 277 275 274 272 271 270 269 268 267 265 262 260 258 257 257 256 256 255 253 250 248 247 245 245 246 245 244 243 243 241 237 236 236 235 233 231 228 228 229 229 228 228 228 229 231 233 236 241 245 247 250 252 253 256 258 260 260 260 261 261 261 256 248 245 245 259 272 274 272 255 241 242 241 239 237
306 304 302 301 299 298 297 296 293 291 289 285 283 280 277 276 274 273 271 269 268 267 266 265 263 260 259 258 257 257 256 255 251 247 247 246 245 245 243 241 241 241 239 235 233 232 232 231 229 227 225 226 226 225 225 225 227 229 232 236 241 244 246 247 250 252 255 256 257 257 256 255 253 251 245 240 244 247 262 278 275 271 253 237 236 237 242 246
312 310 309 307 306 305 304 302 300 298 295 292 289 285 282 279 276 275 273 271 270 268 267 265 264 262 260 258 257 256 256 256 253 248 247 247 245 243 242 239 237 238 236 233 230 229 228 229 228 226 225 224 223 223 224 224 225 229 233 238 241 241 243 246 249 251 252 252 253 252 249 249 245 239 236 237 244 245 264 281 266 255 244 237 237 240 248 251
320 319 318 316 315 314 312 311 309 307 304 301 297 293 289 284 280 277 274 272 271 270 268 266 264 262 260 258 257 256 253 250 251 250 248 247 245 242 241 238 235 235 236 232 229 226 225 225 225 224 225 224 222 223 225 223 224 230 234 236 237 238 241 244 246 247 247 247 246 246 245 244 238 232 230 233 239 235 244 267 257 249 246 239 236 240 248 250
324 324 325 324 324 324 324 323 321 320 317 314 310 306 300 294 288 282 277 273 270 270 268 266 265 262 260 259 257 255 251 246 246 249 248 246 243 240 239 237 233 233 234 232 227 225 225 223 222 222 223 224 223 224 225 223 223 230 233 232 233 235 237 240 242 243 243 242 242 243 243 237 233 231 228 230 233 232 247 261 256 251 249 239 234 242 254 259
330 330 331 330 330 328 327 326 323 321 319 318 316 312 309 305 299 292 285 278 272 269 266 266 265 263 261 259 258 256 251 247 246 246 244 242 240 237 236 235 232 231 231 229 224 221 223 223 221 219 221 223 223 225 224 223 224 228 231 231 231 233 234 236 238 240 239 238 238 237 236 232 229 233 233 229 228 237 256 261 254 248 247 244 244 251 262 268
339 337 335 332 330 327 324 322 319 316 314 313 311 309 307 303 301 297 292 285 278 271 267 265 263 263 262 260 260 256 251 244 242 243 240 238 238 236 234 232 230 229 228 227 222 217 218 221 221 220 224 225 225 225 222 222 224 226 230 231 230 232 234 234 234 235 236 236 234 231 232 227 224 235 238 228 224 237 248 250 245 242 247 250 250 253 258 257
340 336 333 330 327 323 321 319 316 314 312 309 306 304 300 298 296 293 289 286 281 276 272 268 265 262 260 261 260 256 255 244 237 240 239 237 234 232 231 229 227 226 225 225 223 218 216 217 219 220 224 225 224 223 220 221 224 225 229 232 232 232 231 232 232 231 232 233 230 229 230 223 223 235 238 229 224 232 238 247 241 236 243 246 246 249 246 242
334 330 327 323 321 318 316 313 312 311 309 307 304 301 296 292 290 287 284 281 279 277 274 271 269 264 262 261 257 259 263 243 234 232 234 233 228 226 226 226 225 224 223 223 223 221 216 212 212 214 219 221 221 222 221 222 225 224 225 231 233 232 230 229 230 229 228 230 226 225 229 225 226 234 233 226 220 231 239 248 243 232 235 238 242 247 245 242
327 324 320 318 316 314 312 310 309 307 305 304 302 300 297 291 286 283 280 278 275 274 273 272 271 269 266 261 260 268 258 240 236 228 228 227 222 221 222 223 222 222 222 221 221 220 217 210 207 209 213 218 219 219 222 223 224 225 224 228 231 232 232 227 227 228 228 228 223 223 236 233 227 231 229 220 221 236 245 247 244 231 228 234 240 247 248 244
323 320 317 316 314 312 311 309 308 306 304 301 299 298 297 294 287 280 276 274 272 271 270 269 269 271 269 265 271 271 242 241 241 232 229 227 221 217 218 221 219 220 221 220 218 217 216 212 208 207 208 213 216 214 219 222 223 225 225 228 230 231 233 228 224 227 227 228 222 222 241 236 224 227 226 220 227 239 245 246 245 238 233 237 242 250 251 248
321 319 316 315 314 312 311 308 307 304 302 299 297 296 295 294 289 281 275 271 270 269 268 267 267 269 268 268 278 258 247 247 245 236 231 228 223 216 215 218 216 217 219 218 216 213 212 212 210 207 204 209 212 213 216 219 221 223 225 228 229 231 235 229 223 224 226 227 220 220 241 238 223 225 227 222 229 235 239 244 245 244 244 247 252 257 258 258
321 319 319 318 317 315 312 309 306 302 300 297 295 295 294 291 287 282 277 272 269 266 266 266 265 266 268 271 272 266 261 252 244 236 227 224 222 215 212 214 213 213 216 215 213 210 209 209 210 207 204 205 207 211 215 216 218 220 222 227 227 230 236 233 224 221 223 224 218 219 239 240 224 223 225 223 229 232 235 240 243 247 249 252 256 259 262 264
324 324 324 323 321 319 315 312 308 305 301 298 295 295 295 291 286 282 279 275 270 265 264 264 264 265 267 272 271 268 267 253 243 234 226 222 218 211 209 213 212 210 213 213 210 208 206 207 208 207 205 204 204 208 211 214 216 215 218 223 225 228 233 234 228 221 219 219 216 219 234 240 228 222 220 221 231 231 234 240 244 248 251 254 258 260 262 265
331 331 330 328 326 324 321 318 314 310 306 303 300 297 296 292 287 284 279 275 270 265 261 260 264 265 266 271 264 261 269 261 249 236 227 221 216 207 204 211 212 209 212 210 207 206 205 206 207 206 204 203 204 204 206 214 214 209 214 219 221 227 230 231 228 219 214 214 216 220 231 237 233 227 220 219 228 230 234 242 246 249 253 257 261 261 260 261
337 336 335 335 334 332 329 324 320 315 310 308 306 303 300 295 291 286 279 273 269 266 264 261 261 263 267 268 249 255 274 262 252 241 227 217 213 205 202 207 208 209 211 209 206 204 204 206 206 206 205 203 202 202 204 212 212 205 208 215 217 219 224 229 228 219 210 213 218 222 231 233 231 231 227 223 228 228 231 238 245 249 253 258 261 260 259 257
341 341 342 343 341 339 335 332 327 319 313 313 312 309 304 300 298 291 283 277 270 264 263 261 257 256 260 252 233 266 281 265 254 242 226 213 208 204 201 202 203 206 208 208 205 202 202 204 204 206 206 203 201 203 205 209 210 207 207 214 217 217 218 223 227 221 212 215 221 225 231 233 228 229 228 226 227 228 230 234 240 247 251 254 257 257 258 253
344 345 347 347 345 341 337 333 329 321 316 315 314 312 309 307 303 294 287 280 274 270 265 263 261 260 259 254 253 268 268 260 252 236 221 211 205 204 201 197 199 203 206 206 204 202 202 204 207 208 208 204 202 204 206 207 206 207 212 216 217 220 221 220 223 222 217 220 226 228 233 235 231 229 227 225 224 227 231 234 238 244 249 253 251 248 249 245
344 346 348 347 345 342 337 333 329 324 320 318 317 315 314 313 307 303 297 281 272 273 273 272 272 271 267 260 254 255 252 247 244 231 215 209 204 205 202 196 197 201 204 205 202 202 204 209 212 211 209 207 204 205 208 208 206 205 211 216 217 221 223 221 220 220 222 228 232 232 234 237 234 230 227 227 227 229 232 234 238 242 248 253 246 238 241 241
343 345 347 346 344 342 338 334 331 329 326 322 320 316 313 311 308 310 306 292 276 271 277 277 272 271 273 269 252 246 248 243 238 224 209 207 205 205 203 197 197 200 202 202 201 202 208 214 214 211 210 208 205 207 209 210 210 207 207 211 216 219 221 222 218 216 221 230 235 237 239 238 232 227 227 229 232 234 237 237 238 241 247 251 240 232 239 241
339 341 344 343 342 343 339 335 335 334 333 329 323 317 312 309 309 309 305 298 290 284 284 278 270 270 274 274 251 239 243 242 237 215 203 207 205 204 203 199 199 201 202 202 202 202 208 216 214 210 210 209 206 208 209 211 214 214 211 211 214 212 215 220 217 213 216 225 231 235 243 239 227 224 226 228 231 234 238 240 242 245 250 250 238 235 244 246
335 337 340 339 340 343 340 337 338 338 337 336 330 323 318 315 315 309 304 300 296 298 299 280 275 275 274 266 240 232 234 237 233 208 198 204 204 204 204 200 200 202 203 204 205 205 208 215 213 210 210 209 207 207 208 211 215 218 215 215 214 207 205 212 215 217 220 226 227 226 245 242 227 223 226 226 230 233 236 240 243 245 247 244 236 238 245 247
332 333 334 335 337 342 341 338 339 339 338 338 334 331 327 322 319 308 306 304 301 307 307 278 274 265 259 250 235 231 230 232 222 195 191 201 202 205 204 200 201 202 203 204 206 209 210 211 212 209 208 209 208 207 208 209 214 218 217 216 213 205 201 200 204 218 224 229 229 224 243 245 227 224 228 230 233 236 237 238 239 241 240 237 233 233 235 236
328 328 331 332 333 338 340 339 341 341 337 336 337 335 331 328 321 308 308 304 302 316 319 279 278 244 243 251 239 230 228 234 215 186 189 199 198 201 200 198 202 204 205 204 207 214 212 206 210 210 208 208 208 208 208 208 212 218 218 215 210 205 201 198 204 220 227 228 226 222 230 243 234 229 230 235 238 239 238 237 237 238 239 237 233 231 229 231
325 326 328 328 329 333 336 338 340 341 338 336 337 334 329 330 322 313 317 308 301 329 326 301 279 231 250 277 251 227 223 241 210 188 189 193 191 194 193 195 202 206 207 204 208 218 212 203 205 210 209 208 208 208 207 206 210 217 218 213 209 206 199 198 212 226 236 242 226 221 226 245 247 238 234 237 240 240 240 239 238 240 240 238 235 231 228 229
326 326 326 325 326 328 332 334 336 339 340 337 334 330 324 324 320 318 327 309 299 324 321 320 283 240 300 276 242 229 210 223 198 191 189 186 186 187 187 192 199 204 207 205 207 216 212 204 202 205 208 209 209 207 205 205 208 216 217 212 209 207 205 212 227 239 251 265 241 225 223 237 254 245 238 240 242 240 240 239 238 239 237 238 237 229 227 229
328 328 328 327 325 326 329 331 333 334 337 337 334 329 321 320 318 320 322 239 301 315 319 327 296 304 325 258 219 220 204 196 172 184 186 185 187 187 185 189 192 198 209 208 207 210 215 210 205 206 210 211 211 208 204 204 206 213 214 210 209 209 217 228 239 249 251 256 245 233 227 227 260 252 243 242 242 239 238 238 236 236 237 238 236 230 227 227
327 330 331 332 329 327 328 330 332 332 333 335 334 326 320 320 317 315 245 272 309 315 318 323 310 321 335 243 205 198 198 196 151 167 182 187 190 189 182 176 182 193 208 210 207 204 211 214 210 211 214 213 212 209 206 204 204 211 211 207 210 215 227 238 242 247 245 243 243 240 239 239 258 259 249 243 240 234 232 234 233 235 236 237 235 230 225 221
322 328 330 334 333 330 330 330 332 334 334 333 330 323 319 319 309 259 205 307 313 317 316 321 322 328 335 233 204 191 192 193 168 166 179 188 191 187 179 173 178 186 198 206 203 198 194 208 213 214 215 214 213 210 208 205 202 206 208 205 209 220 230 242 239 234 236 244 244 245 247 241 236 255 257 248 239 233 231 232 229 229 230 232 231 223 214 208
317 323 326 329 334 333 330 330 332 335 335 332 329 324 320 317 284 227 285 309 311 319 322 326 333 336 324 218 199 193 190 191 184 170 172 185 193 187 179 178 177 175 191 198 195 196 194 200 209 213 215 212 210 209 206 204 201 199 201 202 202 208 217 225 226 221 225 251 247 246 248 242 242 254 258 248 236 231 228 227 223 222 224 226 221 209 201 200
316 320 320 322 328 331 330 331 333 335 335 333 331 327 321 311 260 272 304 307 304 321 329 334 339 341 286 211 190 187 188 187 188 173 166 182 196 192 183 181 180 177 193 192 188 194 198 202 205 204 211 211 206 204 202 200 200 196 195 198 196 168 183 207 206 217 242 242 244 247 250 250 250 257 254 237 226 222 218 217 218 222 225 220 210 200 198 201
319 319 318 318 320 323 328 331 331 333 335 334 331 328 319 291 286 304 317 322 323 327 334 340 348 11 192 202 174 176 183 181 185 177 168 179 194 198 191 185 185 185 186 184 186 193 195 204 204 197 202 207 204 206 204 198 198 198 196 199 204 200 184 191 187 188 196 216 239 240 235 222 228 251 249 229 219 220 220 215 216 222 224 218 209 202 202 204
324 322 320 318 316 318 323 325 327 331 335 336 331 324 305 281 298 308 322 334 334 331 335 344 1 48 118 153 139 165 179 179 180 176 175 186 192 197 195 190 187 184 176 178 185 194 197 207 205 196 198 203 201 205 205 200 198 199 198 203 213 211 201 195 195 195 189 187 228 223 205 211 225 241 243 228 219 220 218 213 213 219 220 217 212 208 207 207
330 326 324 320 316 317 319 323 327 328 335 338 330 317 304 305 315 316 324 335 336 331 334 346 8 39 103 130 128 149 162 168 174 173 180 195 195 198 198 197 191 184 177 180 183 188 199 208 197 193 197 202 203 202 202 201 196 196 200 206 213 210 207 220 242 199 181 181 217 217 212 228 232 235 233 226 218 216 211 208 212 218 220 217 212 212 213 213
338 332 328 321 317 319 321 325 328 329 337 338 325 318 317 320 328 327 327 335 337 332 330 335 1 15 47 104 126 150 151 148 168 174 177 189 198 201 200 202 196 186 172 176 184 181 192 202 193 194 195 195 201 203 203 206 199 195 201 205 205 205 213 224 240 23 135 170 220 216 216 217 210 213 220 218 214 210 207 208 213 217 219 216 213 214 217 216
345 337 329 321 318 322 325 329 333 336 341 339 328 325 325 328 336 338 337 340 338 335 334 331 349 3 45 99 128 157 151 136 161 178 186 191 205 205 201 203 197 185 169 161 182 182 187 205 198 199 195 188 194 201 203 209 207 202 202 201 199 199 206 212 222 266 152 188 233 214 214 208 201 201 208 212 213 211 212 218 218 215 214 213 213 215 218 217
344 335 327 322 321 328 334 337 341 345 343 338 331 329 331 337 347 352 351 349 335 330 342 345 349 5 84 119 138 152 144 142 161 178 199 203 211 209 203 203 194 183 177 167 177 180 185 205 192 195 195 189 192 200 201 203 203 205 206 203 202 203 197 199 209 225 194 188 217 219 242 202 202 205 204 208 213 214 218 221 216 208 209 211 213 215 217 215
344 336 330 329 331 338 345 346 347 347 345 339 337 338 341 347 4 20 9 358 344 331 339 355 8 38 106 129 137 140 144 151 160 173 207 212 210 211 207 202 191 184 185 185 184 183 181 189 181 184 190 195 201 204 205 202 196 196 201 201 200 201 196 195 208 223 228 198 165 179 320 203 196 199 196 199 209 214 217 217 210 203 203 206 211 213 212 210
352 345 341 341 341 346 352 353 352 349 349 348 350 354 354 356 12 35 28 15 11 359 355 16 58 112 123 132 133 132 148 143 151 169 202 213 207 210 209 200 190 188 195 199 197 188 178 174 176 179 188 199 206 206 209 207 199 195 197 200 201 200 194 179 200 220 227 245 218 178 213 210 189 187 180 176 189 203 208 210 206 199 195 198 204 206 203 204
0 353 350 348 347 351 353 353 356 355 353 353 355 0 2 2 10 25 31 25 19 14 20 44 112 139 139 149 140 82 137 141 160 172 182 213 210 205 204 198 190 189 200 203 196 183 178 249 309 193 195 202 209 210 212 210 204 199 200 204 205 205 202 187 178 207 216 235 243 202 204 204 186 190 185 162 167 183 190 197 197 191 188 191 194 193 192 199
3 358 357 356 358 360 354 352 358 359 354 350 350 358 6 7 8 15 24 24 19 23 41 71 112 130 134 103 36 61 121 149 171 177 161 220 222 180 189 198 197 193 200 211 204 189 201 247 287 215 184 194 204 211 211 207 202 201 204 209 209 209 208 201 187 196 204 211 208 171 180 198 181 184 187 171 168 171 176 189 193 188 185 186 186 184 183 191
5 3 2 4 10 7 358 353 354 350 346 345 348 358 11 13 10 14 22 23 22 34 65 92 100 96 51 28 46 73 104 133 167 186 165 205 213 130 166 195 203 200 193 202 202 191 199 225 244 162 145 167 190 196 195 197 199 202 204 206 207 208 207 207 210 212 208 206 199 182 183 185 170 172 180 174 171 175 180 188 193 190 186 183 183 181 180 187
4 8 8 7 11 11 5 356 352 346 335 338 346 359 11 16 17 21 27 29 34 46 63 71 48 22 25 37 64 72 74 92 126 184 225 272 239 195 166 186 203 205 189 173 178 185 196 218 236 204 163 156 175 182 184 187 193 201 204 202 203 202 202 207 213 216 212 210 205 198 193 179 168 169 178 180 183 187 184 183 189 191 188 185 183 181 181 187
359 6 10 12 13 11 9 2 359 353 335 334 345 359 9 17 26 34 36 34 34 40 52 66 70 2 27 44 58 54 60 68 57 53 257 282 264 176 177 184 197 200 184 163 164 188 230 268 270 240 202 185 180 186 191 189 187 191 195 197 199 197 197 203 208 210 213 216 207 199 200 192 182 180 185 187 190 188 181 180 187 189 187 186 185 183 184 186
358 1 6 12 14 7 7 8 5 0 348 344 350 359 8 18 30 41 45 37 28 28 44 67 72 54 42 38 41 44 47 32 12 28 29 343 114 144 176 186 189 189 183 177 185 212 273 294 283 259 214 194 184 179 191 193 191 187 180 182 190 193 193 199 203 208 215 221 213 193 193 201 197 197 202 203 196 188 185 185 186 185 185 187 187 187 188 189
3 4 4 9 10 4 5 7 6 2 359 357 356 0 13 27 30 34 40 39 30 25 33 46 53 60 59 21 26 30 17 354 305 36 55 80 114 132 161 178 180 180 183 187 190 218 277 294 275 222 175 181 185 178 181 191 196 197 189 177 184 194 201 205 204 206 215 227 235 232 218 213 210 208 210 210 200 193 190 187 185 185 186 188 189 190 191 190
8 11 9 10 12 9 6 5 5 3 1 1 3 8 19 27 30 33 32 33 34 26 24 29 42 64 70 40 32 11 3 353 314 34 64 90 115 134 148 163 175 178 179 188 203 236 271 292 274 196 147 153 177 182 178 183 188 196 201 196 191 196 204 213 212 207 217 234 241 244 254 243 224 220 215 207 197 192 191 187 185 187 187 188 191 194 194 192
11 12 10 13 18 15 9 6 6 6 5 6 8 16 21 16 22 35 31 24 24 19 15 18 28 48 89 101 102 1 0 340 316 37 76 95 113 132 145 159 177 182 186 201 217 233 253 291 292 202 164 124 149 169 176 181 183 192 201 202 201 202 205 208 212 212 222 237 239 233 237 231 208 214 217 205 193 189 189 188 187 189 188 189 195 197 197 196
15 11 6 11 20 17 14 13 10 9 12 12 9 12 18 13 12 25 32 23 15 4 360 3 10 18 126 133 141 197 307 329 332 51 86 102 117 132 147 162 177 189 200 206 211 225 256 293 294 191 173 117 120 143 161 171 179 191 194 193 197 201 200 202 212 215 217 226 225 216 218 212 197 198 202 203 198 191 188 188 188 190 191 195 204 205 202 201
17 14 8 10 18 18 16 19 17 15 16 16 11 8 8 9 7 8 19 24 13 356 342 342 356 4 188 161 161 190 208 345 4 76 95 106 124 140 152 165 178 190 193 194 209 283 275 274 239 184 166 121 116 124 143 153 159 179 187 189 193 194 194 200 215 209 205 213 210 203 211 209 201 195 191 198 199 190 187 189 191 196 201 205 216 221 213 207
Height
3079 3078 3076 3076 3075 3074 3073 3072 3071 3071 3070 3069 3068 3067 3066 3066 3065 3065 3065 3065 3066 3066 3067 3067 3067 3067 3067 3067 3067 3067 3070 3072 3075 3076 3079 3083 3079 3078 3082 3085 3086 3086 3089 3093 3095 3096 3098 3101 3104 3105 3106 3107 3109 3112 3115 3115 3118 3119 3118 3115 3110 3110 3114 3117 3123 3126 3129 3133 3137 3139 3141 3141 3140 3143 3145 3144 3143 3143 3142 3142 3143 3144 3146 3147 3149 3151 3152 3153
3075 3074 3073 3073 3072 3071 3070 3069 3068 3067 3066 3066 3065 3064 3063 3062 3062 3061 3061 3061 3061 3061 3062 3062 3062 3062 3062 3062 3062 3062 3065 3067 3069 3073 3074 3074 3073 3075 3079 3081 3082 3082 3085 3090 3091 3092 3094 3097 3099 3100 3101 3102 3104 3108 3111 3111 3112 3112 3112 3108 3103 3107 3112 3117 3122 3124 3128 3132 3135 3137 3139 3138 3138 3140 3142 3141 3140 3141 3140 3140 3141 3141 3143 3146 3147 3149 3150 3152
3073 3071 3070 3070 3069 3068 3067 3066 3065 3064 3063 3063 3062 3061 3060 3059 3058 3057 3057 3056 3056 3057 3057 3057 3057 3057 3057 3057 3057 3058 3060 3061 3064 3068 3068 3067 3069 3072 3075 3078 3079 3079 3082 3085 3087 3088 3090 3093 3094 3095 3097 3098 3100 3104 3106 3106 3107 3107 3108 3102 3099 3107 3112 3115 3119 3122 3126 3130 3133 3134 3135 3136 3136 3138 3139 3138 3137 3137 3137 3138 3139 3139 3141 3143 3145 3147 3149 3150
3070 3069 3068 3067 3066 3065 3064 3063 3062 3061 3060 3059 3059 3058 3057 3056 3055 3054 3053 3052 3052 3053 3053 3053 3052 3052 3053 3052 3052 3053 3055 3056 3059 3062 3062 3063 3066 3068 3071 3074 3075 3075 3078 3081 3083 3085 3087 3089 3090 3091 3092 3094 3097 3100 3100 3101 3102 3103 3101 3096 3100 3108 3110 3112 3116 3120 3125 3127 3129 3130 3132 3132 3133 3136 3135 3135 3134 3134 3135 3136 3137 3137 3139 3141 3144 3146 3147 3148
3068 3066 3065 3064 3063 3062 3061 3060 3059 3058 3057 3056 3055 3054 3053 3052 3051 3050 3050 3049 3049 3049 3049 3048 3048 3048 3048 3048 3048 3048 3051 3052 3054 3057 3057 3059 3062 3065 3067 3069 3071 3071 3074 3076 3079 3082 3084 3085 3086 3088 3088 3090 3093 3095 3094 3097 3100 3098 3095 3096 3102 3105 3106 3111 3115 3118 3122 3124 3125 3127 3128 3129 3132 3133 3132 3132 3132 3132 3134 3135 3135 3136 3138 3140 3142 3144 3145 3146
3065 3063 3063 3061 3060 3059 3058 3058 3056 3055 3054 3053 3052 3051 3050 3049 3048 3047 3046 3046 3045 3045 3045 3044 3044 3043 3043 3043 3043 3044 3046 3048 3050 3052 3054 3055 3057 3060 3062 3064 3066 3068 3070 3073 3076 3079 3080 3082 3083 3084 3085 3087 3090 3090 3091 3096 3097 3094 3093 3097 3100 3101 3105 3109 3113 3115 3119 3121 3121 3123 3125 3127 3128 3128 3129 3130 3130 3131 3133 3133 3134 3135 3136 3138 3140 3141 3142 3143
3062 3061 3060 3059 3058 3057 3056 3055 3054 3053 3052 3051 3049 3048 3047 3046 3045 3043 3043 3042 3041 3041 3040 3040 3040 3039 3039 3038 3039 3039 3039 3044 3049 3050 3050 3051 3052 3055 3057 3059 3062 3064 3066 3069 3073 3075 3077 3077 3078 3080 3082 3084 3086 3087 3090 3095 3094 3090 3090 3094 3096 3099 3103 3106 3110 3113 3116 3117 3118 3121 3123 3124 3124 3124 3126 3127 3128 3130 3131 3131 3132 3132 3134 3135 3137 3139 3140 3141
3061 3060 3059 3058 3057 3055 3054 3053 3052 3051 3049 3048 3047 3046 3045 3044 3042 3041 3040 3039 3038 3038 3037 3037 3036 3035 3035 3034 3035 3033 3033 3044 3049 3046 3046 3046 3048 3051 3053 3055 3057 3059 3062 3065 3069 3071 3072 3073 3074 3077 3078 3081 3084 3086 3090 3092 3090 3086 3087 3092 3094 3096 3100 3104 3107 3110 3112 3114 3116 3119 3118 3120 3121 3122 3123 3123 3126 3129 3129 3129 3130 3130 3131 3133 3135 3136 3137 3139
3061 3059 3058 3057 3056 3054 3053 3051 3050 3049 3047 3046 3044 3043 3042 3041 3040 3039 3037 3036 3035 3034 3033 3033 3032 3032 3031 3030 3031 3025 3031 3046 3046 3040 3041 3043 3045 3048 3049 3051 3052 3055 3059 3061 3065 3066 3067 3069 3072 3076 3077 3080 3083 3084 3087 3087 3085 3084 3086 3090 3093 3095 3098 3101 3104 3106 3109 3111 3113 3114 3114 3116 3119 3120 3119 3120 3125 3127 3127 3128 3128 3128 3129 3130 3132 3133 3135 3136
3060 3059 3057 3056 3054 3053 3051 3049 3047 3046 3045 3043 3042 3040 3039 3038 3037 3036 3035 3034 3032 3031 3031 3030 3029 3028 3027 3027 3025 3021 3032 3045 3040 3036 3038 3039 3042 3044 3045 3047 3048 3051 3054 3057 3061 3062 3064 3068 3072 3075 3076 3077 3079 3080 3083 3082 3081 3084 3086 3088 3090 3093 3096 3098 3100 3103 3106 3108 3110 3111 3111 3114 3117 3117 3115 3118 3124 3125 3125 3126 3126 3127 3127 3128 3129 3130 3131 3133
3060 3058 3056 3055 3053 3051 3049 3047 3046 3044 3042 3040 3039 3038 3036 3035 3033 3032 3032 3031 3030 3029 3028 3027 3025 3025 3024 3023 3020 3022 3034 3037 3032 3033 3033 3035 3038 3039 3041 3043 3045 3048 3051 3054 3057 3059 3063 3066 3070 3071 3071 3072 3074 3077 3080 3079 3079 3083 3085 3085 3087 3090 3092 3094 3096 3099 3102 3104 3107 3109 3110 3111 3113 3113 3112 3117 3123 3122 3123 3125 3125 3125 3125 3125 3125 3126 3128 3131
3059 3057 3055 3054 3051 3049 3047 3045 3043 3041 3039 3037 3035 3034 3033 3031 3030 3029 3028 3027 3027 3026 3025 3024 3022 3021 3020 3019 3019 3025 3030 3026 3025 3028 3027 3030 3034 3036 3038 3039 3042 3045 3048 3051 3054 3058 3061 3063 3064 3064 3066 3068 3072 3075 3076 3077 3078 3080 3083 3083 3084 3087 3087 3089 3093 3096 3099 3100 3105 3110 3108 3106 3107 3108 3111 3117 3120 3120 3121 3123 3124 3124 3123 3123 3122 3123 3127 3130
3058 3056 3054 3052 3049 3047 3045 3042 3040 3038 3036 3034 3032 3031 3029 3027 3026 3024 3023 3023 3022 3022 3022 3021 3020 3019 3016 3015 3020 3023 3021 3018 3020 3024 3025 3027 3030 3033 3035 3036 3040 3043 3045 3049 3052 3056 3058 3059 3058 3058 3063 3066 3068 3072 3072 3074 3076 3077 3080 3081 3082 3083 3081 3085 3091 3094 3096 3098 3104 3108 3104 3100 3103 3107 3112 3116 3118 3118 3119 3120 3122 3122 3120 3120 3121 3123 3125 3128
3056 3054 3051 3049 3047 3045 3042 3039 3037 3034 3032 3029 3028 3027 3025 3023 3021 3020 3019 3018 3018 3018 3018 3017 3016 3016 3012 3013 3019 3018 3014 3015 3018 3021 3022 3023 3025 3028 3030 3033 3037 3040 3043 3047 3049 3052 3054 3055 3054 3056 3059 3061 3065 3069 3070 3072 3073 3075 3078 3078 3079 3079 3077 3081 3088 3090 3093 3096 3102 3105 3100 3098 3102 3107 3111 3114 3115 3116 3116 3117 3119 3119 3118 3119 3120 3122 3124 3127
3054 3051 3049 3046 3044 3042 3039 3036 3033 3030 3027 3025 3023 3023 3021 3019 3017 3015 3014 3014 3014 3013 3013 3013 3013 3012 3009 3011 3015 3013 3012 3013 3013 3016 3016 3015 3019 3024 3029 3031 3034 3037 3040 3043 3046 3048 3050 3051 3051 3052 3055 3058 3063 3065 3067 3070 3070 3072 3074 3073 3075 3076 3076 3080 3085 3087 3090 3095 3100 3101 3097 3097 3101 3105 3109 3112 3113 3114 3114 3115 3115 3116 3116 3118 3119 3121 3123 3125
3051 3049 3046 3043 3041 3038 3035 3032 3029 3026 3023 3020 3019 3018 3016 3015 3013 3011 3010 3010 3010 3009 3009 3009 3009 3008 3006 3009 3011 3009 3009 3009 3009 3010 3010 3011 3015 3022 3026 3028 3030 3034 3037 3040 3043 3044 3046 3046 3047 3050 3053 3056 3059 3060 3065 3067 3066 3068 3069 3069 3072 3074 3076 3080 3083 3085 3089 3093 3096 3096 3095 3096 3100 3103 3107 3109 3110 3112 3112 3112 3112 3113 3114 3116 3118 3120 3122 3123
3049 3046 3043 3040 3037 3035 3032 3029 3026 3023 3019 3017 3014 3013 3012 3010 3009 3007 3007 3006 3005 3005 3005 3005 3005 3004 3003 3006 3007 3007 3007 3006 3006 3007 3006 3008 3012 3018 3021 3022 3026 3031 3035 3038 3040 3040 3042 3042 3044 3047 3050 3053 3055 3058 3061 3059 3059 3063 3065 3068 3072 3074 3076 3078 3080 3084 3088 3090 3091 3092 3094 3096 3099 3102 3105 3107 3108 3109 3109 3109 3109 3110 3112 3115 3117 3118 3119 3120
3046 3043 3040 3037 3034 3031 3028 3025 3022 3019 3016 3013 3010 3008 3007 3006 3005 3004 3003 3002 3001 3002 3001 3002 3003 3000 3000 3002 3003 3004 3005 3003 3003 3004 3004 3006 3010 3014 3016 3018 3024 3029 3032 3035 3036 3037 3039 3039 3042 3045 3046 3048 3049 3051 3051 3049 3053 3060 3063 3066 3070 3072 3074 3076 3079 3082 3086 3088 3089 3090 3092 3095 3098 3101 3103 3105 3106 3106 3107 3107 3108 3108 3110 3113 3115 3116 3117 3118
3043 3040 3037 3034 3031 3029 3026 3022 3019 3016 3012 3010 3008 3006 3004 3002 3001 3000 2999 2999 2998 2998 2998 2998 2998 2997 2998 2999 3001 3002 3001 3000 3000 3001 3002 3004 3007 3010 3011 3015 3020 3024 3027 3029 3031 3033 3035 3037 3038 3038 3037 3039 3041 3044 3047 3051 3056 3061 3064 3066 3068 3071 3073 3075 3078 3081 3085 3087 3087 3088 3090 3094 3097 3098 3100 3103 3103 3104 3104 3105 3106 3106 3108 3111 3113 3114 3115 3116
3041 3038 3035 3032 3030 3027 3024 3021 3017 3014 3010 3008 3005 3003 3002 3000 2999 2997 2997 2996 2995 2995 2995 2995 2994 2993 2995 2997 2999 2999 2998 2996 2997 2998 3000 3002 3004 3006 3008 3012 3016 3019 3021 3023 3027 3030 3033 3033 3030 3028 3031 3037 3042 3045 3049 3054 3058 3062 3064 3066 3068 3070 3072 3074 3077 3081 3084 3085 3086 3088 3090 3092 3095 3096 3098 3100 3100 3100 3101 3102 3103 3104 3106 3109 3111 3113 3113 3114
3039 3036 3033 3031 3029 3026 3023 3019 3016 3012 3009 3006 3003 3001 3000 2998 2997 2995 2994 2993 2993 2992 2991 2991 2991 2989 2990 2994 2996 2996 2993 2992 2993 2996 2998 2999 3001 3002 3004 3008 3011 3013 3016 3020 3025 3028 3030 3026 3023 3027 3034 3040 3044 3047 3050 3054 3057 3060 3062 3064 3067 3068 3071 3074 3077 3080 3083 3084 3085 3087 3089 3090 3092 3094 3095 3095 3095 3096 3097 3100 3101 3102 3104 3107 3109 3111 3112 3112
3038 3035 3032 3030 3028 3025 3022 3018 3014 3011 3007 3004 3002 3000 2998 2997 2996 2994 2992 2988 2989 2991 2989 2989 2988 2985 2986 2990 2992 2992 2989 2989 2991 2994 2996 2996 2998 2999 3001 3005 3007 3009 3014 3018 3021 3024 3023 3018 3021 3030 3036 3040 3044 3047 3050 3053 3056 3058 3060 3063 3065 3067 3070 3073 3076 3079 3081 3082 3083 3085 3086 3087 3089 3091 3091 3091 3092 3093 3096 3098 3100 3101 3103 3105 3107 3109 3110 3110
3036 3033 3031 3029 3027 3024 3021 3017 3013 3009 3006 3003 3001 2999 2997 2996 2995 2993 2991 2986 2983 2986 2986 2985 2984 2983 2984 2986 2988 2987 2985 2986 2988 2991 2993 2993 2994 2996 2999 3001 3004 3008 3012 3014 3015 3017 3016 3016 3023 3031 3035 3039 3043 3045 3048 3052 3054 3056 3058 3060 3062 3066 3070 3072 3075 3078 3080 3081 3082 3083 3084 3085 3086 3087 3087 3088 3089 3091 3094 3096 3098 3099 3101 3103 3106 3107 3108 3108
3035 3032 3030 3028 3026 3023 3020 3017 3012 3009 3005 3002 3000 2998 2996 2996 2995 2993 2990 2985 2981 2981 2983 2982 2981 2981 2981 2982 2983 2982 2981 2982 2985 2989 2990 2991 2992 2994 2996 2999 3003 3006 3008 3010 3013 3014 3015 3018 3024 3030 3034 3037 3040 3043 3046 3049 3051 3053 3056 3058 3061 3066 3069 3072 3075 3077 3078 3079 3080 3082 3082 3080 3081 3082 3083 3084 3086 3088 3091 3093 3094 3096 3098 3101 3103 3104 3105 3106
3034 3031 3029 3027 3024 3022 3019 3016 3012 3009 3005 3002 2999 2998 2996 2995 2994 2992 2989 2985 2980 2978 2980 2979 2979 2979 2979 2979 2979 2978 2979 2979 2981 2986 2988 2988 2991 2992 2995 2998 3001 3002 3005 3009 3013 3013 3015 3020 3024 3028 3031 3035 3037 3039 3042 3045 3049 3051 3054 3057 3061 3066 3069 3072 3074 3075 3076 3076 3078 3080 3079 3076 3077 3078 3079 3080 3082 3085 3088 3089 3090 3093 3095 3097 3099 3101 3103 3104
3033 3031 3028 3026 3023 3021 3019 3015 3012 3009 3006 3003 3000 2997 2996 2994 2993 2992 2989 2985 2980 2977 2978 2978 2978 2977 2976 2976 2975 2976 2977 2975 2979 2984 2984 2986 2990 2991 2994 2996 2998 3001 3004 3010 3013 3012 3014 3020 3023 3026 3029 3032 3035 3037 3040 3044 3047 3049 3051 3056 3062 3066 3068 3071 3072 3073 3074 3074 3076 3078 3076 3074 3074 3075 3076 3078 3079 3082 3084 3085 3087 3089 3092 3094 3097 3099 3101 3101
3032 3030 3028 3025 3022 3020 3018 3015 3012 3009 3006 3003 3000 2998 2996 2993 2992 2991 2989 2986 2981 2977 2977 2976 2976 2975 2975 2975 2974 2974 2975 2974 2977 2981 2982 2985 2988 2989 2992 2994 2996 3000 3004 3010 3011 3008 3011 3018 3021 3023 3027 3030 3031 3033 3037 3042 3046 3047 3050 3057 3062 3065 3067 3069 3070 3072 3072 3073 3074 3074 3074 3073 3071 3071 3073 3075 3076 3077 3079 3081 3084 3086 3089 3093 3095 3096 3097 3098
3031 3029 3027 3024 3021 3018 3016 3014 3011 3009 3006 3004 3000 2998 2996 2994 2992 2991 2991 2988 2981 2977 2976 2975 2974 2974 2973 2973 2972 2973 2974 2974 2976 2979 2982 2985 2986 2988 2990 2992 2995 2999 3003 3006 3005 3005 3010 3015 3017 3021 3025 3026 3027 3031 3037 3042 3045 3047 3052 3058 3063 3065 3067 3068 3069 3070 3071 3073 3070 3069 3072 3071 3068 3067 3070 3071 3072 3073 3075 3078 3082 3084 3087 3090 3092 3093 3094 3094
3030 3028 3026 3024 3021 3018 3015 3013 3011 3008 3006 3004 3001 2998 2996 2994 2993 2992 2993 2989 2980 2976 2976 2974 2973 2973 2971 2970 2971 2972 2973 2973 2975 2978 2982 2985 2985 2987 2989 2992 2996 2999 3002 3003 3004 3008 3011 3014 3018 3021 3022 3023 3027 3032 3037 3041 3044 3048 3054 3059 3062 3065 3066 3067 3068 3069 3071 3070 3065 3065 3069 3069 3066 3064 3066 3067 3067 3069 3073 3077 3080 3081 3085 3087 3088 3089 3090 3092
3028 3027 3025 3023 3020 3017 3015 3012 3010 3007 3005 3003 3001 2998 2996 2994 2992 2992 2992 2986 2978 2975 2974 2973 2972 2971 2969 2968 2968 2970 2971 2973 2974 2976 2981 2984 2985 2987 2990 2993 2996 2998 3001 3003 3006 3010 3013 3016 3019 3020 3020 3023 3028 3034 3037 3041 3045 3049 3054 3058 3062 3063 3064 3066 3067 3069 3069 3064 3060 3063 3067 3069 3066 3061 3061 3064 3065 3069 3073 3075 3077 3079 3082 3083 3084 3086 3087 3089
3027 3026 3024 3022 3019 3016 3013 3011 3009 3006 3004 3002 3000 2998 2996 2993 2992 2992 2989 2982 2976 2974 2972 2971 2969 2968 2967 2967 2967 2968 2970 2972 2973 2974 2978 2982 2985 2987 2990 2992 2994 2997 3000 3002 3005 3010 3012 3014 3016 3016 3020 3025 3030 3033 3037 3041 3045 3049 3052 3056 3060 3061 3062 3064 3065 3066 3064 3058 3058 3063 3066 3068 3065 3059 3059 3063 3065 3068 3070 3071 3074 3076 3078 3080 3081 3083 3085 3087
3025 3024 3023 3021 3018 3015 3012 3010 3008 3006 3003 3001 2999 2997 2994 2993 2991 2989 2985 2980 2976 2973 2970 2968 2966 2965 2965 2964 2965 2966 2968 2971 2972 2973 2976 2980 2983 2984 2987 2989 2990 2994 2996 2998 3002 3007 3009 3010 3013 3016 3020 3024 3028 3031 3035 3039 3043 3046 3049 3053 3056 3058 3060 3061 3061 3061 3059 3057 3059 3062 3064 3064 3061 3058 3059 3061 3063 3065 3067 3069 3072 3074 3076 3077 3079 3081 3082 3084
3023 3023 3021 3019 3017 3015 3011 3009 3007 3005 3002 3000 2998 2996 2994 2993 2989 2984 2981 2980 2976 2972 2969 2967 2964 2963 2963 2962 2964 2965 2968 2971 2972 2974 2976 2978 2982 2984 2986 2988 2990 2992 2993 2995 3000 3005 3007 3010 3012 3016 3018 3021 3023 3025 3028 3032 3036 3040 3044 3046 3049 3052 3055 3057 3057 3057 3057 3057 3058 3061 3063 3060 3057 3058 3058 3058 3060 3063 3065 3068 3069 3071 3074 3075 3077 3078 3079 3082
3022 3021 3020 3018 3016 3013 3011 3008 3006 3004 3001 2999 2997 2994 2993 2991 2986 2982 2980 2978 2974 2971 2969 2966 2963 2962 2962 2962 2964 2965 2968 2971 2972 2974 2976 2978 2980 2983 2985 2987 2989 2992 2993 2996 3000 3002 3005 3007 3008 3010 3013 3016 3019 3021 3024 3029 3033 3037 3041 3044 3046 3046 3049 3052 3054 3055 3056 3057 3057 3059 3060 3056 3054 3056 3056 3057 3060 3061 3063 3065 3066 3069 3071 3074 3075 3076 3077 3080
3020 3019 3018 3016 3014 3012 3010 3008 3006 3003 3000 2998 2995 2993 2991 2988 2984 2981 2979 2976 2973 2970 2968 2967 2964 2962 2962 2963 2964 2966 2968 2971 2973 2975 2976 2978 2980 2981 2983 2985 2988 2991 2993 2996 2999 3001 3004 3004 3005 3009 3012 3015 3018 3021 3026 3030 3033 3037 3041 3043 3043 3043 3046 3049 3051 3052 3053 3055 3054 3054 3054 3052 3053 3054 3054 3055 3057 3058 3060 3062 3064 3067 3069 3071 3073 3075 3077 3079
3019 3017 3016 3014 3012 3010 3009 3007 3005 3002 2999 2996 2994 2991 2989 2986 2983 2980 2978 2975 2973 2970 2968 2967 2966 2964 2964 2964 2965 2967 2969 2971 2973 2975 2976 2978 2980 2981 2983 2985 2987 2990 2992 2995 2998 3000 3003 3005 3006 3009 3012 3015 3018 3021 3025 3028 3030 3034 3038 3038 3039 3044 3048 3049 3049 3049 3051 3052 3051 3049 3050 3051 3052 3052 3051 3052 3054 3055 3058 3060 3063 3065 3066 3069 3072 3074 3076 3077
3019 3017 3015 3013 3011 3009 3008 3006 3003 3001 2998 2995 2992 2989 2986 2984 2981 2979 2977 2975 2973 2971 2969 2968 2966 2965 2965 2965 2966 2968 2969 2971 2973 2975 2977 2978 2980 2981 2983 2985 2988 2990 2992 2995 2998 3001 3003 3005 3006 3008 3010 3014 3018 3022 3025 3027 3029 3031 3032 3035 3040 3046 3048 3048 3048 3049 3051 3050 3047 3046 3048 3049 3050 3049 3048 3049 3052 3054 3056 3059 3061 3063 3065 3067 3070 3072 3074 3076
3018 3016 3014 3012 3010 3008 3006 3004 3002 2999 2996 2993 2990 2987 2984 2982 2980 2977 2976 2974 2972 2971 2970 2969 2968 2967 2966 2966 2967 2969 2970 2971 2973 2975 2977 2978 2980 2981 2982 2985 2988 2990 2993 2995 2999 3001 3003 3004 3005 3007 3009 3013 3018 3021 3023 3026 3028 3030 3032 3036 3041 3042 3043 3046 3048 3048 3049 3049 3047 3045 3046 3047 3047 3047 3047 3048 3050 3053 3055 3057 3059 3061 3063 3065 3068 3070 3072 3076
3016 3014 3013 3011 3009 3007 3005 3003 3001 2998 2995 2992 2989 2987 2984 2981 2978 2977 2975 2974 2972 2971 2970 2969 2968 2968 2967 2967 2968 2970 2971 2972 2973 2976 2977 2979 2980 2981 2983 2985 2988 2990 2993 2995 2998 3000 3002 3003 3004 3006 3010 3013 3016 3018 3018 3020 3025 3031 3034 3036 3038 3040 3042 3044 3046 3046 3046 3047 3046 3045 3045 3045 3045 3045 3046 3047 3050 3052 3054 3056 3058 3060 3061 3064 3066 3068 3071 3075
3016 3013 3011 3009 3008 3006 3004 3002 3000 2998 2995 2993 2990 2986 2984 2981 2978 2977 2975 2973 2972 2971 2971 2970 2969 2968 2968 2969 2969 2970 2971 2973 2974 2976 2978 2979 2981 2982 2983 2986 2988 2990 2992 2995 2997 2999 3001 3002 3003 3005 3009 3012 3011 3011 3012 3015 3020 3026 3029 3031 3034 3038 3040 3042 3045 3045 3044 3045 3045 3045 3044 3043 3043 3044 3045 3046 3049 3051 3053 3055 3057 3059 3060 3062 3065 3066 3070 3074
3016 3013 3010 3008 3006 3004 3003 3002 3000 2998 2995 2993 2990 2986 2983 2981 2978 2977 2975 2974 2973 2972 2971 2970 2969 2969 2969 2970 2970 2970 2971 2973 2975 2977 2979 2979 2981 2981 2982 2985 2988 2990 2993 2995 2996 2998 3000 3001 3002 3004 3006 3006 3007 3009 3012 3016 3020 3023 3025 3028 3032 3036 3038 3040 3042 3042 3042 3043 3043 3043 3043 3042 3042 3044 3044 3046 3048 3050 3053 3055 3056 3058 3059 3061 3063 3066 3070 3074
3016 3013 3010 3008 3005 3003 3002 3001 3000 2998 2995 2993 2991 2988 2984 2981 2979 2978 2976 2974 2973 2972 2971 2971 2971 2970 2970 2971 2971 2970 2971 2973 2975 2977 2979 2979 2980 2981 2982 2985 2988 2990 2992 2994 2995 2998 3000 3001 3001 3002 3003 3005 3008 3012 3015 3018 3022 3025 3027 3029 3032 3035 3036 3037 3039 3040 3041 3042 3041 3042 3041 3041 3042 3044 3045 3046 3047 3049 3051 3053 3055 3057 3058 3060 3063 3066 3070 3073
3016 3013 3011 3008 3006 3004 3002 3001 2999 2998 2996 2994 2992 2990 2986 2982 2980 2978 2977 2975 2974 2973 2972 2972 2972 2972 2972 2972 2971 2970 2972 2973 2975 2977 2978 2979 2980 2981 2982 2986 2988 2990 2993 2994 2996 2999 3000 3001 3001 3001 3003 3007 3010 3013 3016 3019 3023 3025 3026 3028 3030 3032 3034 3036 3038 3039 3039 3040 3040 3041 3041 3041 3042 3044 3045 3045 3046 3048 3049 3051 3054 3056 3058 3060 3063 3066 3069 3072
3017 3014 3011 3009 3007 3005 3003 3001 2999 2997 2995 2993 2992 2989 2986 2983 2980 2978 2977 2976 2975 2974 2974 2974 2973 2973 2973 2973 2971 2971 2973 2974 2976 2977 2978 2979 2980 2981 2982 2985 2988 2990 2992 2994 2996 2998 2999 3000 3001 3001 3003 3007 3010 3012 3014 3017 3019 3021 3023 3026 3028 3030 3033 3036 3037 3037 3037 3038 3038 3039 3040 3040 3041 3043 3044 3045 3046 3047 3048 3050 3053 3056 3058 3060 3063 3065 3068 3071
3018 3015 3012 3009 3008 3006 3004 3002 3000 2998 2995 2992 2990 2988 2985 2984 2982 2979 2978 2977 2976 2975 2975 2975 2975 2974 2974 2973 2973 2973 2974 2975 2976 2977 2978 2978 2979 2980 2981 2983 2986 2989 2991 2994 2997 2998 2999 3000 3001 3001 3001 3003 3005 3006 3006 3009 3014 3017 3020 3024 3027 3029 3031 3033 3034 3035 3036 3036 3037 3038 3039 3040 3041 3043 3043 3045 3046 3047 3048 3050 3052 3055 3059 3061 3063 3065 3068 3070
3017 3015 3013 3010 3008 3007 3005 3003 3001 2998 2995 2992 2989 2987 2985 2984 2982 2980 2979 2978 2977 2977 2977 2976 2975 2975 2974 2974 2974 2974 2974 2975 2976 2977 2977 2978 2978 2979 2980 2981 2985 2988 2991 2994 2997 2999 3000 3000 3001 3001 3001 3001 3002 3003 3004 3008 3012 3016 3019 3022 3026 3028 3029 3031 3032 3034 3035 3036 3036 3037 3038 3039 3041 3042 3043 3044 3045 3046 3048 3050 3052 3055 3058 3061 3063 3065 3068 3070
3017 3015 3012 3010 3008 3007 3006 3004 3002 2999 2996 2993 2990 2988 2986 2985 2983 2981 2979 2979 2978 2978 2977 2976 2976 2976 2975 2975 2975 2975 2976 2976 2976 2976 2976 2976 2976 2978 2979 2982 2986 2989 2992 2995 2997 2999 3000 2999 2999 3000 3001 3002 3004 3005 3007 3010 3013 3016 3018 3021 3024 3026 3028 3029 3031 3032 3034 3035 3035 3036 3037 3038 3039 3041 3042 3044 3045 3046 3048 3050 3052 3055 3058 3060 3063 3065 3067 3070
3019 3016 3013 3011 3009 3007 3005 3003 3002 2999 2996 2994 2991 2989 2987 2986 2984 2982 2981 2980 2979 2978 2978 2977 2976 2976 2976 2976 2976 2976 2977 2977 2976 2976 2975 2975 2976 2978 2981 2984 2988 2991 2993 2996 2997 2999 2999 2999 2999 3000 3001 3002 3004 3005 3007 3010 3013 3016 3019 3021 3023 3025 3027 3028 3030 3031 3033 3034 3035 3035 3036 3037 3038 3039 3041 3043 3044 3046 3048 3050 3052 3055 3057 3060 3062 3064 3066 3069
3020 3018 3015 3013 3011 3008 3006 3004 3002 2999 2996 2994 2992 2990 2988 2986 2985 2984 2983 2982 2980 2980 2979 2978 2978 2977 2977 2976 2977 2977 2976 2976 2976 2975 2974 2974 2976 2979 2982 2987 2990 2991 2993 2995 2997 2998 2999 2999 2999 3001 3001 3002 3003 3005 3007 3010 3012 3015 3018 3021 3023 3025 3026 3027 3029 3030 3031 3033 3034 3035 3036 3036 3037 3038 3040 3041 3043 3045 3047 3050 3052 3054 3056 3059 3061 3063 3066 3069
3019 3017 3015 3013 3011 3009 3007 3005 3002 3000 2997 2994 2992 2990 2989 2987 2986 2984 2983 2982 2981 2981 2980 2979 2978 2978 2978 2977 2977 2977 2976 2976 2975 2974 2974 2975 2977 2980 2983 2987 2990 2991 2993 2996 2997 2998 2999 2998 2999 3000 3001 3002 3003 3005 3007 3009 3011 3014 3017 3020 3022 3024 3025 3026 3027 3029 3030 3032 3033 3034 3035 3035 3036 3037 3039 3040 3042 3044 3047 3049 3052 3054 3056 3059 3061 3063 3065 3068
3019 3017 3015 3013 3011 3010 3008 3005 3002 3000 2997 2994 2992 2991 2989 2988 2986 2985 2984 2983 2982 2981 2980 2979 2978 2978 2978 2978 2977 2977 2977 2976 2975 2974 2975 2976 2978 2980 2983 2987 2989 2991 2994 2996 2997 2998 2998 2998 2998 2999 3001 3002 3003 3004 3006 3008 3011 3014 3016 3018 3020 3022 3024 3025 3027 3028 3030 3031 3033 3033 3034 3035 3036 3037 3038 3040 3042 3044 3046 3049 3052 3055 3057 3059 3060 3062 3065 3068
3021 3019 3017 3014 3012 3010 3008 3006 3003 3000 2998 2996 2994 2992 2990 2989 2987 2986 2984 2983 2982 2981 2980 2979 2978 2978 2978 2978 2977 2977 2978 2978 2977 2976 2977 2978 2979 2980 2983 2987 2990 2991 2994 2996 2997 2997 2997 2998 2998 2999 3001 3002 3003 3004 3006 3008 3011 3014 3015 3017 3019 3021 3023 3025 3027 3028 3029 3031 3032 3032 3033 3035 3036 3038 3039 3040 3042 3044 3047 3050 3053 3055 3057 3058 3060 3062 3065 3068